Regional Weather Roundup
Issued by NWS

Home | Current Version | Previous Version | Graphics & Text | Print | Product List | Glossary On
Versions: 1 2 3 4 5 6 7 8 9 10 11 12 13 14 15 16 17 18 19 20 21 22 23 24 25 26 27 28 29 30 31 32 33 34 35 36 37 38 39 40 41 42 43 44 45 46 47 48 49 50
000
ASUS43 KOAX 210102
RWRNE

WEATHER ROUNDUP FOR NEBRASKA
NATIONAL WEATHER SERVICE OMAHA NE
700 PM CST MON FEB 20 2017

NOTES: SATELLITE DATA IS BEING USED TO AUGMENT CLOUD COVER ABOVE
       12000 FEET.
       "FAIR" INDICATES FEW OR NO CLOUDS BELOW 12,000 FEET WITH NO
       SIGNIFICANT WEATHER AND/OR OBSTRUCTIONS TO VISIBILITY.

  * THESE STATIONS DO NOT REPORT WEATHER SUCH AS RAIN...SNOW OR FOG.

NEZ001>004-019>022-054>056-210200-
NEBRASKA PANHANDLE

CITY           SKY/WX    TMP DP  RH WIND       PRES   REMARKS
SCOTTSBLUFF    CLEAR     58  22  24 W15G25    29.94R
ALLIANCE       CLEAR     48  24  39 W6        29.91R
CHADRON        CLEAR     53  28  38 W9        29.88R
KIMBALL        CLEAR     51  23  34 W6        30.00R
SIDNEY         CLEAR     48  20  32 W7        29.98R
$$

NEZ057>060-069>072-079>082-210200-
SOUTHWEST NEBRASKA

CITY           SKY/WX    TMP DP  RH WIND       PRES   REMARKS
NORTH PLATTE   CLEAR     45  25  45 CALM      29.95R
IMPERIAL       CLEAR     49  18  29 CALM      29.97R
LEXINGTON      CLEAR     48  29  47 NW6       29.97R
MCCOOK         CLEAR     53  25  33 NW6       29.97R
OGALLALA       CLEAR     49  15  25 CALM      29.95R
$$

NEZ005>010-023>029-035>040-094-210200-
NORTH CENTRAL NEBRASKA

CITY           SKY/WX    TMP DP  RH WIND       PRES   REMARKS
VALENTINE      CLEAR     48  24  39 SW7       29.88R
AINSWORTH      CLEAR     48  27  43 SW3       29.90R
BROKEN BOW     CLEAR     47  27  45 CALM      29.94R
O`NEILL        CLEAR     52  33  47 W6        29.91R
ORD            CLEAR     48  30  49 NW5       29.92R
THEDFORD       CLEAR     51  27  38 CALM      29.93R
$$

NEZ041-046>049-061>064-073>077-083>087-210200-
SOUTH CENTRAL NEBRASKA

CITY           SKY/WX    TMP DP  RH WIND       PRES   REMARKS
GRAND ISLAND   CLEAR     48  36  63 N3        29.96R
AURORA         CLEAR     45  37  71 NW5       29.96R
HASTINGS       CLEAR     50  34  54 N5        29.97R
HEBRON         CLEAR     56  41  57 NW10      29.92R
HOLDREGE       CLEAR     52  31  46 CALM      29.97R
KEARNEY *      CLEAR     54  30  40 NW3       29.96R
YORK           CLEAR     48  39  71 N7        29.94R
$$

NEZ011>018-030>034-042>045-210200-
NORTHEAST NEBRASKA

CITY           SKY/WX    TMP DP  RH WIND       PRES   REMARKS
NORFOLK        CLEAR     44  36  73 W5        29.91R
ALBION         CLEAR     50  36  58 CALM      29.92R
BLAIR          PTCLDY    51  43  74 NW6       29.88R
FREMONT        CLEAR     47  42  82 W5        29.90R
TEKAMAH        CLEAR     47  43  86 W6        29.88R
WAYNE          CLEAR     45  40  84 CALM      29.91R
$$

NEZ050>053-065>068-078-088>093-210200-
SOUTHEAST NEBRASKA

CITY           SKY/WX    TMP DP  RH WIND       PRES   REMARKS
LINCOLN        CLEAR     51  41  68 N5        29.91R
OMAHA EPPLEY   PTCLDY    51  43  74 NW6       29.88R
BEATRICE       CLEAR     51  44  76 N6        29.90R
FALLS CITY     MOCLDY    58  53  84 SW8       29.87R
NEBRASKA CITY  MOCLDY    57  50  78 NW8       29.89R
PLATTSMOUTH    CLOUDY    53  44  70 NW7       29.89R
$$

NEZ044-045-051>053-067-210200-
OMAHA AREA

CITY           SKY/WX    TMP DP  RH WIND       PRES   REMARKS
OMAHA EPPLEY   PTCLDY    51  43  74 NW6       29.88R
BLAIR          PTCLDY    51  43  74 NW6       29.88R
FREMONT        CLEAR     47  42  82 W5        29.90R
MILLARD        CLEAR     57  46  65 NW5       29.88R
PLATTSMOUTH    CLOUDY    53  44  70 NW7       29.89R
WAHOO          FAIR      49  41  73 NW8       29.89R
$$




USA.gov is the U.S. government's official web portal to all federal, state and local government web resources and services.